N5CSU Weather Reports


time (UTC)temp
C
wind
direction
speed
KPH
gust
KPH
rain 1hr
cm
rain 24hr
cm
rain mn
cm
humidity
%
barometer
mb
20260506051244 18 186 0.0 0.0 0.00 0.00 0.00 78 1009.6
20260506050742 19 182 0.0 0.0 0.00 0.00 0.00 78 1009.5
20260506050239 19 180 0.0 1.6 0.00 0.00 0.00 78 1009.5
20260506044730 20 118 0.0 0.0 0.00 0.00 0.00 78 1009.5
20260506044227 20 175 0.0 0.0 0.00 0.00 0.00 77 1009.5
20260506043725 20 170 0.0 1.6 0.00 0.00 0.00 79 1009.6
20260506043222 20 189 0.0 0.0 0.00 0.00 0.00 78 1009.4
20260506042721 20 184 0.0 1.6 0.00 0.00 0.00 79 1009.0
20260506042219 20 162 0.0 0.0 0.00 0.00 0.00 79 1009.1
20260506041717 20 191 0.0 0.0 0.00 0.00 0.00 80 1008.9
20260506041214 21 195 0.0 0.0 0.00 0.00 0.00 80 1008.8
20260506040711 21 179 0.0 0.0 0.00 0.00 0.00 80 1008.8
20260506040208 21 185 0.0 0.0 0.00 0.00 0.00 80 1008.5
20260506035704 21 191 0.0 0.0 0.00 0.00 0.00 81 1008.9
20260506035201 21 186 0.0 0.0 0.00 0.00 0.00 81 1008.5
20260506034658 21 186 0.0 0.0 0.00 0.00 0.00 80 1008.8
20260506034155 21 185 0.0 0.0 0.00 0.00 0.00 81 1008.5
20260506033653 21 185 0.0 0.0 0.00 0.00 0.00 81 1008.3
20260506033149 21 184 0.0 0.0 0.00 0.00 0.00 81 1008.3
20260506032646 21 193 0.0 0.0 0.00 0.00 0.00 81 1008.4
20260506032143 21 178 0.0 0.0 0.00 0.00 0.00 81 1008.2
20260506031640 21 183 0.0 0.0 0.00 0.00 0.00 80 1008.0
20260506031137 21 186 0.0 0.0 0.00 0.00 0.00 82 1008.1
20260506030636 21 189 0.0 0.0 0.00 0.00 0.00 83 1008.1
20260506030132 21 192 0.0 0.0 0.00 0.00 0.00 87 1007.9
20260506025629 21 189 0.0 0.0 0.00 0.00 0.00 87 1007.5
20260506025125 21 197 0.0 0.0 0.00 0.00 0.00 87 1007.6
20260506024623 21 195 0.0 0.0 0.00 0.00 0.00 88 1007.5
20260506024119 21 192 0.0 0.0 0.00 0.00 0.00 89 1007.5
20260506023615 21 185 0.0 0.0 0.00 0.00 0.00 90 1007.1
20260506023113 21 193 0.0 0.0 0.00 0.00 0.00 90 1007.0
20260506022610 21 193 0.0 0.0 0.00 0.00 0.00 90 1006.8
20260506022107 21 193 0.0 0.0 0.00 0.00 0.00 90 1006.4
20260506021605 21 192 0.0 0.0 0.00 0.00 0.00 89 1006.2
20260506021102 21 189 0.0 0.0 0.00 0.00 0.00 88 1006.4
20260506020559 21 192 0.0 0.0 0.00 0.00 0.00 89 1006.4
20260506020057 22 192 0.0 0.0 0.00 0.00 0.00 88 1006.3
20260506015554 22 192 0.0 0.0 0.00 0.00 0.00 89 1006.0
20260506015051 22 196 0.0 0.0 0.00 0.00 0.00 88 1006.3
20260506014548 22 202 0.0 0.0 0.00 0.00 0.00 88 1006.3
20260506014043 22 200 0.0 0.0 0.00 0.00 0.00 88 1006.0
20260506013542 22 195 0.0 0.0 0.00 0.00 0.00 88 1006.0
20260506013039 23 183 0.0 0.0 0.00 0.00 0.00 92 1005.7
20260506012535 23 190 0.0 0.0 0.00 0.00 0.00 94 1006.0
20260506012032 23 188 0.0 0.0 0.00 0.00 0.00 95 1006.1
20260506011530 24 188 0.0 0.0 0.00 0.00 0.00 95 1005.9
20260506011025 24 203 0.0 0.0 0.00 0.00 0.00 95 1005.5
20260506010525 24 186 0.0 0.0 0.00 0.00 0.00 94 1005.5
20260506010021 24 188 0.0 0.0 0.00 0.00 0.00 94 1005.1
20260506005518 24 186 0.0 0.0 0.00 0.00 0.00 93 1005.2
20260506005014 24 186 0.0 0.0 0.00 0.00 0.00 93 1005.4
20260506004512 25 185 0.0 0.0 0.00 0.00 0.00 93 1005.3
20260506004008 25 186 0.0 0.0 0.00 0.00 0.00 92 1005.2
20260506003504 25 177 0.0 0.0 0.00 0.00 0.00 92 1004.9
20260506003000 25 191 0.0 0.0 0.00 0.00 0.00 91 1005.2
20260506002457 25 151 0.0 1.6 0.00 0.00 0.00 90 1005.0
20260506001952 26 183 0.0 0.0 0.00 0.00 0.00 88 1005.1
20260506001449 26 182 0.0 0.0 0.00 0.00 0.00 87 1005.2
20260506000946 27 199 0.0 0.0 0.00 0.00 0.00 83 1005.0
20260506000445 27 177 0.0 0.0 0.00 0.00 0.00 78 1004.8
20260505235941 28 196 0.0 0.0 0.00 0.00 0.00 75 1004.6
20260505235439 28 240 0.0 1.6 0.00 0.00 0.00 75 1004.3
20260505234935 28 210 0.0 0.0 0.00 0.00 0.00 74 1004.1
20260505234433 28 181 0.0 0.0 0.00 0.00 0.00 73 1004.2
20260505233929 28 184 0.0 0.0 0.00 0.00 0.00 73 1004.1
20260505233427 28 196 0.0 0.0 0.00 0.00 0.00 74 1004.2
20260505232925 28 189 0.0 0.0 0.00 0.00 0.00 73 1004.2
20260505232422 29 208 0.0 0.0 0.00 0.00 0.00 72 1004.1
20260505231919 29 193 0.0 0.0 0.00 0.00 0.00 71 1004.0
20260505231416 29 171 0.0 1.6 0.00 0.00 0.00 71 1004.3
20260505230914 30 175 0.0 0.0 0.00 0.00 0.00 70 1004.3
20260505230412 30 195 1.6 1.6 0.00 0.00 0.00 69 1004.0
20260505225908 30 190 0.0 1.6 0.00 0.00 0.00 68 1004.0
20260505225406 30 190 0.0 0.0 0.00 0.00 0.00 69 1003.7
20260505224906 30 201 0.0 0.0 0.00 0.00 0.00 68 1003.8
20260505224404 30 183 0.0 0.0 0.00 0.00 0.00 69 1003.8
20260505223900 30 201 0.0 0.0 0.00 0.00 0.00 69 1003.9
20260505223357 30 175 0.0 0.0 0.00 0.00 0.00 68 1003.8
20260505222853 30 199 0.0 0.0 0.00 0.00 0.00 68 1003.6
20260505222350 30 196 1.6 3.2 0.00 0.00 0.00 68 1003.7
20260505221847 30 192 0.0 0.0 0.00 0.00 0.00 68 1003.7
20260505221343 30 202 0.0 0.0 0.00 0.00 0.00 66 1003.8
20260505220840 30 189 3.2 3.2 0.00 0.00 0.00 63 1003.7
20260505220337 30 178 0.0 1.6 0.00 0.00 0.00 65 1003.7
20260505215835 30 190 0.0 0.0 0.00 0.00 0.00 67 1003.5
20260505215333 30 185 1.6 1.6 0.00 0.00 0.00 65 1003.8
20260505214831 30 202 0.0 0.0 0.00 0.00 0.00 67 1003.8
20260505214328 30 216 0.0 0.0 0.00 0.00 0.00 66 1003.8
20260505213825 30 197 0.0 0.0 0.00 0.00 0.00 66 1003.8
20260505213323 30 195 1.6 1.6 0.00 0.00 0.00 65 1004.0
20260505212819 30 200 0.0 0.0 0.00 0.00 0.00 65 1003.9
20260505212316 30 208 0.0 0.0 0.00 0.00 0.00 67 1004.1
20260505211812 30 173 0.0 1.6 0.00 0.00 0.00 65 1004.1
20260505211310 31 195 0.0 1.6 0.00 0.00 0.00 64 1004.1
20260505210806 31 188 0.0 1.6 0.00 0.00 0.00 63 1004.4
20260505210303 30 213 0.0 0.0 0.00 0.00 0.00 65 1004.2
20260505205800 30 197 0.0 0.0 0.00 0.00 0.00 67 1004.3
20260505205259 30 177 0.0 1.6 0.00 0.00 0.00 67 1004.4
20260505204755 30 209 0.0 0.0 0.00 0.00 0.00 65 1004.4
20260505204253 30 188 0.0 0.0 0.00 0.00 0.00 64 1004.5
20260505203749 30 215 0.0 1.6 0.00 0.00 0.00 63 1004.7
20260505203246 30 158 1.6 3.2 0.00 0.00 0.00 63 1004.5
20260505202742 30 204 0.0 0.0 0.00 0.00 0.00 63 1004.7
20260505202238 30 158 1.6 1.6 0.00 0.00 0.00 64 1004.7
20260505201736 30 200 0.0 0.0 0.00 0.00 0.00 68 1004.8
20260505201233 30 174 1.6 1.6 0.00 0.00 0.00 65 1004.9
20260505200731 30 204 0.0 1.6 0.00 0.00 0.00 65 1005.0
20260505200228 30 182 0.0 1.6 0.00 0.00 0.00 67 1005.0
20260505195723 30 191 1.6 3.2 0.00 0.00 0.00 66 1004.9
20260505195221 30 171 1.6 1.6 0.00 0.00 0.00 68 1005.0
20260505194718 29 181 1.6 3.2 0.00 0.00 0.00 67 1004.9
20260505194214 29 166 0.0 1.6 0.00 0.00 0.00 68 1004.9
20260505193710 29 186 0.0 0.0 0.00 0.00 0.00 69 1005.2
20260505193208 29 185 1.6 1.6 0.00 0.00 0.00 68 1004.9
20260505192707 28 204 1.6 1.6 0.00 0.00 0.00 69 1005.2
20260505192204 28 273 0.0 1.6 0.00 0.00 0.00 69 1005.1
20260505191702 28 203 1.6 1.6 0.00 0.00 0.00 69 1005.0
20260505191200 28 184 0.0 1.6 0.00 0.00 0.00 72 1005.1
20260505190656 28 179 3.2 3.2 0.00 0.00 0.00 69 1005.2
20260505190155 28 185 1.6 3.2 0.00 0.00 0.00 71 1005.1
20260505185652 28 228 1.6 3.2 0.00 0.00 0.00 72 1005.3
20260505185149 28 203 0.0 0.0 0.00 0.00 0.00 72 1005.3
20260505184645 28 190 0.0 1.6 0.00 0.00 0.00 72 1005.3
20260505184143 27 170 1.6 1.6 0.00 0.00 0.00 73 1005.2
20260505183639 27 219 1.6 1.6 0.00 0.00 0.00 73 1005.5
20260505183137 27 183 1.6 1.6 0.00 0.00 0.00 73 1005.2
20260505182633 27 228 0.0 0.0 0.00 0.00 0.00 73 1005.4
20260505182130 27 212 0.0 0.0 0.00 0.00 0.00 73 1005.6
20260505181626 27 197 0.0 1.6 0.00 0.00 0.00 74 1005.5
20260505181124 27 174 3.2 4.8 0.00 0.00 0.00 73 1005.5
20260505180620 27 216 0.0 1.6 0.00 0.00 0.00 73 1005.6
20260505180117 27 172 1.6 3.2 0.00 0.00 0.00 74 1005.5
20260505175613 27 225 1.6 3.2 0.00 0.00 0.00 73 1005.6
20260505175109 27 203 0.0 0.0 0.00 0.00 0.00 72 1005.4
20260505174606 27 204 1.6 1.6 0.00 0.00 0.00 71 1005.6
20260505174102 27 199 1.6 3.2 0.00 0.00 0.00 72 1005.7
20260505173554 27 198 0.0 1.6 0.00 0.00 0.00 75 1005.4
20260505173051 27 173 1.6 3.2 0.00 0.00 0.00 73 1005.6
20260505172548 27 196 1.6 1.6 0.00 0.00 0.00 73 1005.6
20260505172045 27 176 0.0 0.0 0.00 0.00 0.00 73 1005.7
20260505171545 27 219 1.6 1.6 0.00 0.00 0.00 73 1005.6
20260505171042 27 193 0.0 0.0 0.00 0.00 0.00 74 1005.5
20260505170539 27 184 0.0 1.6 0.00 0.00 0.00 73 1005.6
20260505170035 27 169 3.2 3.2 0.00 0.00 0.00 73 1005.7
20260505165531 26 197 3.2 3.2 0.00 0.00 0.00 74 1005.8
20260505165026 26 199 0.0 0.0 0.00 0.00 0.00 75 1005.6
20260505164522 26 188 0.0 0.0 0.00 0.00 0.00 76 1005.7
20260505164021 26 184 1.6 1.6 0.00 0.00 0.00 75 1005.8
20260505163519 26 319 3.2 6.4 0.00 0.00 0.00 75 1005.7
20260505163015 26 182 3.2 4.8 0.00 0.00 0.00 75 1005.7
20260505162509 26 167 1.6 3.2 0.00 0.00 0.00 76 1005.3
20260505162006 26 353 1.6 3.2 0.00 0.00 0.00 76 1005.3
20260505161502 26 183 1.6 1.6 0.00 0.00 0.00 75 1005.4
20260505160959 26 190 1.6 3.2 0.00 0.00 0.00 76 1005.4
20260505160457 25 171 1.6 3.2 0.00 0.00 0.00 75 1005.5
20260505152934 25 213 1.6 1.6 0.00 0.00 0.00 79 1005.6
20260505152426 25 228 1.6 3.2 0.00 0.00 0.00 79 1005.6
20260505151925 25 218 1.6 3.2 0.00 0.00 0.00 80 1005.5
20260505151421 24 170 3.2 4.8 0.00 0.00 0.00 81 1005.6
20260505150919 24 202 1.6 1.6 0.00 0.00 0.00 82 1005.6
20260505150416 24 208 0.0 0.0 0.00 0.00 0.00 82 1005.7
20260505140340 22 208 1.6 1.6 0.00 0.00 0.00 85 1005.6
20260505130303 22 210 0.0 0.0 0.00 0.00 0.00 87 1005.3
20260505124754 21 191 0.0 0.0 0.00 0.00 0.00 87 1005.3
20260505124251 21 200 0.0 0.0 0.00 0.00 0.00 87 1005.2
20260505123746 21 226 0.0 0.0 0.00 0.00 0.00 87 1005.1
20260505123243 21 203 0.0 0.0 0.00 0.00 0.00 87 1005.0
20260505122739 21 198 0.0 0.0 0.00 0.00 0.00 87 1004.8
20260505122237 21 202 0.0 0.0 0.00 0.00 0.00 87 1004.8
20260505121733 21 199 0.0 0.0 0.00 0.00 0.00 87 1004.7
20260505121230 21 198 0.0 1.6 0.00 0.00 0.00 87 1004.8
20260505120726 21 197 0.0 0.0 0.00 0.00 0.00 87 1004.9
20260505120223 21 185 0.0 1.6 0.00 0.00 0.00 87 1004.7
20260505115721 21 203 0.0 0.0 0.00 0.00 0.00 87 1004.7
20260505115219 21 335 0.0 0.0 0.00 0.00 0.00 87 1004.4
20260505114716 21 190 0.0 0.0 0.00 0.00 0.00 87 1004.4
20260505114212 21 208 0.0 0.0 0.00 0.00 0.00 87 1004.4
20260505113709 21 187 0.0 0.0 0.00 0.00 0.00 87 1004.6
20260505113206 21 187 1.6 1.6 0.00 0.00 0.00 87 1004.3
20260505112702 21 187 0.0 0.0 0.00 0.00 0.00 87 1004.5
20260505112200 21 193 0.0 1.6 0.00 0.00 0.00 87 1004.7
20260505111659 21 205 1.6 1.6 0.00 0.00 0.00 86 1004.5
20260505111155 21 203 0.0 1.6 0.00 0.00 0.00 86 1004.5
20260505110651 21 200 0.0 0.0 0.00 0.00 0.00 86 1004.6
20260505110149 21 183 0.0 0.0 0.00 0.00 0.00 86 1004.7
20260505102125 21 197 1.6 3.2 0.00 0.00 0.00 85 1004.5
20260505101623 21 270 0.0 1.6 0.00 0.00 0.00 85 1004.7
20260505101119 21 192 1.6 1.6 0.00 0.00 0.00 85 1004.6
20260505100615 21 187 1.6 1.6 0.00 0.00 0.00 85 1004.7
20260505100113 21 276 1.6 1.6 0.00 0.00 0.00 85 1004.7
20260505095609 21 178 0.0 1.6 0.00 0.00 0.00 85 1004.7
20260505095106 21 203 0.0 1.6 0.00 0.00 0.00 85 1004.8
20260505094602 22 182 1.6 1.6 0.00 0.00 0.00 85 1004.9
20260505094058 22 197 0.0 1.6 0.00 0.00 0.00 85 1004.7
20260505093554 22 207 0.0 1.6 0.00 0.00 0.00 85 1004.7
20260505093052 22 151 0.0 0.0 0.00 0.00 0.00 85 1004.8
20260505092549 22 190 0.0 0.0 0.00 0.00 0.00 85 1004.9
20260505092048 21 215 1.6 3.2 0.00 0.00 0.00 85 1005.1
20260505091544 21 187 0.0 1.6 0.00 0.00 0.00 85 1005.1
20260505091043 21 252 1.6 3.2 0.00 0.00 0.00 85 1004.8
20260505090540 21 186 0.0 1.6 0.00 0.00 0.00 85 1005.0
20260505090038 21 190 0.0 0.0 0.00 0.00 0.00 85 1004.8
20260505085536 21 221 4.8 4.8 0.00 0.00 0.00 85 1004.9
20260505085034 21 232 0.0 0.0 0.00 0.00 0.00 86 1004.8
20260505084531 21 189 1.6 3.2 0.00 0.00 0.00 86 1005.0
20260505084029 21 236 1.6 1.6 0.00 0.00 0.00 86 1004.8
20260505083526 21 201 0.0 1.6 0.00 0.00 0.00 86 1005.0
20260505083023 21 203 0.0 0.0 0.00 0.00 0.00 86 1004.8
20260505082518 21 222 0.0 1.6 0.00 0.00 0.00 86 1005.1
20260505082015 21 195 0.0 0.0 0.00 0.00 0.00 86 1005.2
20260505081512 21 175 1.6 1.6 0.00 0.00 0.00 85 1005.1
20260505081009 21 209 0.0 1.6 0.00 0.00 0.00 85 1005.2
20260505080505 21 188 0.0 0.0 0.00 0.00 0.00 85 1005.2
20260505080001 21 192 0.0 1.6 0.00 0.00 0.00 85 1005.2
20260505075457 21 190 0.0 0.0 0.00 0.00 0.00 85 1005.4
20260505074955 21 191 0.0 0.0 0.00 0.00 0.00 85 1005.4
20260505074452 21 190 1.6 1.6 0.00 0.00 0.00 85 1005.4
20260505073949 21 181 1.6 1.6 0.00 0.00 0.00 84 1005.5
20260505073447 21 212 1.6 1.6 0.00 0.00 0.00 84 1005.6
20260505072943 21 215 1.6 3.2 0.00 0.00 0.00 84 1005.8
20260505072440 21 220 1.6 1.6 0.00 0.00 0.00 84 1005.9
20260505071936 22 190 1.6 3.2 0.00 0.00 0.00 83 1005.9
20260505071432 22 218 3.2 3.2 0.00 0.00 0.00 83 1006.0
20260505070930 22 194 3.2 4.8 0.00 0.00 0.00 83 1006.1
20260505070427 22 204 0.0 1.6 0.00 0.00 0.00 83 1006.0
20260505065922 22 196 0.0 0.0 0.00 0.00 0.00 83 1006.2
20260505065419 22 196 0.0 0.0 0.00 0.00 0.00 82 1006.2
20260505064916 22 201 0.0 0.0 0.00 0.00 0.00 82 1006.1
20260505064413 22 194 0.0 0.0 0.00 0.00 0.00 82 1006.2
20260505063911 22 197 3.2 4.8 0.00 0.00 0.00 82 1006.4
20260505063407 22 202 1.6 1.6 0.00 0.00 0.00 81 1006.5
20260505062904 22 185 0.0 0.0 0.00 0.00 0.00 81 1006.4
20260505062401 22 183 0.0 0.0 0.00 0.00 0.00 81 1006.4
20260505061858 22 203 0.0 0.0 0.00 0.00 0.00 81 1006.2
20260505061356 22 296 1.6 1.6 0.00 0.00 0.00 80 1006.4
20260505060853 22 192 0.0 0.0 0.00 0.00 0.00 80 1006.3
20260505060350 22 176 0.0 0.0 0.00 0.00 0.00 80 1006.3
20260505055846 22 203 0.0 0.0 0.00 0.00 0.00 79 1006.3
20260505055342 22 220 1.6 3.2 0.00 0.00 0.00 79 1006.4
20260505054839 22 206 0.0 0.0 0.00 0.00 0.00 79 1006.3
20260505054337 22 202 0.0 1.6 0.00 0.00 0.00 79 1006.4
20260505053835 22 197 0.0 1.6 0.00 0.00 0.00 79 1006.4
20260505053331 22 179 1.6 1.6 0.00 0.00 0.00 78 1006.4
20260505052828 22 190 1.6 4.8 0.00 0.00 0.00 78 1006.5
20260505052325 22 258 0.0 1.6 0.00 0.00 0.00 78 1006.4